Weather History for LTCD - November, 2012

Change the Weather History Date:

Saturday, November 10, 2012

  Actual Average Record
Temperature  
Mean Temperature 55 °F -  
Max Temperature 62 °F 48 °F - ()
Min Temperature 48 °F 31 °F - ()
Degree Days  
Heating Degree Days 10    
Growing Degree Days 5 (Base 50)    
Moisture  
Dew Point 45 °F    
Average Humidity 74    
Maximum Humidity 100    
Minimum Humidity 43    
Precipitation  
Precipitation 0.04 in 0.05 in - ()
Sea Level Pressure  
Sea Level Pressure 29.87 in    
Wind  
Wind Speed 5 mph ()    
Max Wind Speed 21 mph    
Max Gust Speed -    
Visibility 6.2 miles    
Events Rain    
T = Trace of Precipitation, MM = Missing Value Source: Averaged Metar Reports

Daily Weather History Graph

Daily Weather History Graph

Search for Another Location

Airport or City:

Trip Planner

Search our weather history database for the weather conditions in past years. The results will help you decide how hot, cold, wet, or windy it might be!

Date:

Astronomy

Nov. 10, 2012 Rise Set
Actual Time 6:00 AM EET 4:10 PM EET
Civil Twilight 5:32 AM EET 4:38 PM EET
Nautical Twilight 4:59 AM EET 5:11 PM EET
Astronomical Twilight 4:28 AM EET 5:42 PM EET
Moon 1:42 AM EET (11/10) 1:44 PM EET (11/10)
Length of Visible Light 11h 06m
Length of Day
10h 09m
Waning Crescent, 17% of the Moon is Illuminated
Nov 10
Waning Crescent
Nov 14
New
Nov 20
First Quarter
Nov 28
Full
Dec 6
Last Quarter

Hourly Weather History & Observations

Time (EET) Temp. Dew Point Humidity Pressure Visibility Wind Dir Wind Speed Gust Speed Precip Events Conditions
12:50 AM 53.6 °F 48.2 °F 82% 29.83 in 6.2 mi Variable 2.3 mph - N/A   Mostly Cloudy
1:50 AM 59.0 °F 44.6 °F 59% 29.83 in 6.2 mi SW 10.4 mph - N/A   Mostly Cloudy
2:00 AM 59 °F 45 °F 50%  in 6 mi SW 10.4 mph - -   Partly Cloudy
2:50 AM 53.6 °F 46.4 °F 77% 29.83 in 6.2 mi Variable 2.3 mph - N/A   Mostly Cloudy
3:50 AM 53.6 °F 44.6 °F 72% 29.83 in 6.2 mi Variable 3.5 mph - N/A   Mostly Cloudy
4:50 AM 53.6 °F 41.0 °F 62% 29.80 in 6.2 mi ESE 9.2 mph - N/A   Mostly Cloudy
5:50 AM 55.4 °F 41.0 °F 58% 29.80 in 6.2 mi SW 3.5 mph - N/A   Mostly Cloudy
6:50 AM 59.0 °F 42.8 °F 55% 29.83 in 6.2 mi South 3.5 mph - N/A   Mostly Cloudy
7:50 AM 57.2 °F 41.0 °F 55% 29.83 in 6.2 mi Variable 3.5 mph - N/A   Mostly Cloudy
8:00 AM 57 °F 40 °F 43%  in 6 mi East 3.5 mph - -   Partly Cloudy
8:50 AM 59.0 °F 42.8 °F 55% 29.83 in 6.2 mi ESE 8.1 mph - N/A Rain Light Rain Showers
9:50 AM 59.0 °F 44.6 °F 59% 29.83 in 6.2 mi South 6.9 mph - N/A Rain Light Rain Showers
10:50 AM 60.8 °F 44.6 °F 55% 29.83 in 6.2 mi SW 4.6 mph - N/A   Mostly Cloudy
11:50 AM 62.6 °F 42.8 °F 48% 29.80 in 6.2 mi SSE 20.7 mph - N/A   Mostly Cloudy
12:50 PM 51.8 °F 48.2 °F 88% 29.86 in 6.2 mi West 12.7 mph - N/A Rain Light Rain Showers
1:50 PM 53.6 °F 48.2 °F 82% 29.86 in 6.2 mi NNW 4.6 mph - N/A   Mostly Cloudy
2:00 PM 54 °F 48 °F 73%  in 6 mi NNW 4.6 mph - - Rain Light Rain Showers
2:50 PM 51.8 °F 46.4 °F 82% 29.89 in 6.2 mi NNW 6.9 mph - N/A Rain Light Rain Showers
3:50 PM 51.8 °F 46.4 °F 82% 29.89 in 6.2 mi NW 6.9 mph - N/A   Mostly Cloudy
4:50 PM 50.0 °F 46.4 °F 87% 29.92 in 6.2 mi NW 6.9 mph - N/A   Mostly Cloudy
5:50 PM 50.0 °F 46.4 °F 87% 29.92 in 6.2 mi Variable 1.2 mph - N/A Rain Light Rain Showers
6:50 PM 50.0 °F 48.2 °F 94% 29.95 in 6.2 mi South 2.3 mph - N/A Rain Light Rain Showers
7:50 PM 48.2 °F 48.2 °F 100% 29.95 in 6.2 mi Variable 1.2 mph - N/A Rain Light Rain Showers
8:00 PM 49 °F 47 °F 92%  in 6 mi SSE 1.2 mph - - Rain Light Rain Showers
8:50 PM 50.0 °F 48.2 °F 94% 29.95 in 6.2 mi Variable 1.2 mph - N/A Rain Light Rain Showers
9:50 PM 48.2 °F 48.2 °F 100% 29.95 in 6.2 mi West 3.5 mph - N/A   Mostly Cloudy
10:50 PM 48.2 °F 48.2 °F 100% 29.95 in 6.2 mi Variable 1.2 mph - N/A   Mostly Cloudy
11:50 PM 48.2 °F 46.4 °F 93% 29.95 in 6.2 mi Variable 1.2 mph - N/A Rain Light Rain Showers